Gillette, WY

10:42 PM MDT on May 26, 2018 (GMT -0600)
Gillette-Campbell County

Weather History for KGCC - March, 2015

Change the Weather History Date:

Wednesday, March 18, 2015

  Actual Average Record
Temperature  
Mean Temperature 41 °F 35 °F  
Max Temperature 52 °F 48 °F 79 °F (2017)
Min Temperature 29 °F 23 °F -11 °F (1965)
Degree Days  
Heating Degree Days 24 30  
Month to date heating degree days 480 574  
Since 1 July heating degree days 5570 5982  
Cooling Degree Days 0 0  
Month to date cooling degree days 0 0  
Year to date cooling degree days 0 0  
Moisture  
Dew Point 29 °F    
Average Humidity 72    
Maximum Humidity 89    
Minimum Humidity 54    
Precipitation  
Precipitation T in 0.04 in 0.69 in (1970)
Month to date precipitation 0.18 0.48  
Year to date precipitation 1.03 1.26  
Sea Level Pressure  
Sea Level Pressure 29.99 in    
Wind  
Wind Speed 9 mph (WNW)    
Max Wind Speed 18 mph    
Max Gust Speed 24 mph    
Visibility 10 miles    
Events      
T = Trace of Precipitation, MM = Missing Value Source: NWS Daily Summary

Daily Weather History Graph

Daily Weather History Graph

Search for Another Location

Airport or City:

Astronomy

Mar. 18, 2015 Rise Set
Actual Time 7:09 AM MDT 7:11 PM MDT
Civil Twilight 6:40 AM MDT 7:40 PM MDT
Nautical Twilight 6:06 AM MDT 8:14 PM MDT
Astronomical Twilight 5:32 AM MDT 8:49 PM MDT
Moon 5:58 AM MDT (3/18) 5:27 PM MDT (3/18)
Length of Visible Light 13h 00m
Length of Day
12h 02m
Waning Crescent, 4% of the Moon is Illuminated
Mar 18
Waning Crescent
Mar 20
New
Mar 27
First Quarter
Apr 4
Full
Apr 11
Last Quarter

Hourly Weather History & Observations

Time (MDT) Temp. Windchill Dew Point Humidity Pressure Visibility Wind Dir Wind Speed Gust Speed Precip Events Conditions
12:53 AM 32.0 °F 23.6 °F 17.1 °F 54% 30.01 in 10.0 mi SE 10.4 mph - N/A   Clear
1:53 AM 32.0 °F 23.6 °F 17.1 °F 54% 29.99 in 10.0 mi SSE 10.4 mph - N/A   Clear
2:53 AM 30.9 °F 23.5 °F 18.0 °F 59% 29.97 in 10.0 mi SSE 8.1 mph - N/A   Clear
3:53 AM 30.9 °F 24.3 °F 17.1 °F 57% 29.96 in 10.0 mi SSE 6.9 mph - N/A   Clear
4:53 AM 30.9 °F 25.2 °F 18.0 °F 59% 29.96 in 10.0 mi SSE 5.8 mph - N/A   Scattered Clouds
5:53 AM 30.9 °F 23.5 °F 18.0 °F 59% 29.95 in 10.0 mi South 8.1 mph - N/A   Clear
6:53 AM 30.0 °F 26.5 °F 19.9 °F 66% 29.98 in 10.0 mi South 3.5 mph - N/A   Clear
7:53 AM 32.0 °F 25.6 °F 21.9 °F 66% 30.00 in 10.0 mi SW 6.9 mph - N/A   Mostly Cloudy
8:53 AM 36.0 °F 29.0 °F 23.0 °F 59% 30.00 in 10.0 mi WNW 9.2 mph - N/A   Mostly Cloudy
9:53 AM 41.0 °F - 28.0 °F 60% 30.00 in - North - - N/A   Unknown
10:30 AM 41.0 °F 35.8 °F 30.0 °F 65% 29.96 in 10.0 mi NW 8.1 mph - N/A   Mostly Cloudy
10:43 AM 42.1 °F 37.7 °F 30.0 °F 62% 29.96 in 10.0 mi NNW 6.9 mph - N/A   Scattered Clouds
10:53 AM 44.1 °F 38.1 °F 30.9 °F 60% 30.00 in 10.0 mi NW 11.5 mph - N/A   Partly Cloudy
11:26 AM 46.0 °F 40.2 °F 33.1 °F 61% 29.96 in 10.0 mi NW 12.7 mph 24.2 mph N/A   Mostly Cloudy
11:53 AM 45.0 °F 38.2 °F 35.1 °F 68% 30.00 in 10.0 mi NW 15.0 mph - N/A   Overcast
12:53 PM 48.0 °F - 36.0 °F 63% 29.99 in 10.0 mi NNW 10.4 mph - N/A   Overcast
1:46 PM 48.9 °F - 37.0 °F 64% 29.95 in 10.0 mi NNW 16.1 mph - N/A   Overcast
1:53 PM 48.9 °F - 37.0 °F 64% 29.97 in 10.0 mi NW 16.1 mph - N/A   Overcast
2:53 PM 51.1 °F - 36.0 °F 56% 29.97 in 10.0 mi NNW 10.4 mph - N/A   Overcast
3:53 PM 51.1 °F - 36.0 °F 56% 29.97 in 10.0 mi North 10.4 mph - N/A   Overcast
4:53 PM 50.0 °F - 35.1 °F 57% 29.98 in 10.0 mi NNE 9.2 mph - N/A   Overcast
5:53 PM 48.0 °F - 35.1 °F 61% 30.00 in 10.0 mi North 12.7 mph - N/A   Overcast
6:53 PM 46.0 °F 43.9 °F 35.1 °F 66% 30.02 in 10.0 mi NW 4.6 mph - 0.00 in   Overcast
7:53 PM 39.0 °F 36.8 °F 34.0 °F 82% 30.04 in 10.0 mi WSW 3.5 mph - N/A   Overcast
8:53 PM 33.1 °F 28.7 °F 30.0 °F 89% 30.05 in 10.0 mi West 4.6 mph - N/A   Clear
9:53 PM 36.0 °F 30.3 °F 32.0 °F 86% 30.04 in 10.0 mi West 6.9 mph - N/A   Clear
10:53 PM 37.9 °F 30.9 °F 33.1 °F 83% 30.03 in 10.0 mi West 10.4 mph - N/A   Clear
11:53 PM 36.0 °F 28.0 °F 30.9 °F 82% 30.06 in 10.0 mi West 11.5 mph - N/A   Clear